Вернуться в каталог

STARLINK-36338

АктивенСвязьSSO
NORAD 67704·PAYLOAD·🇺🇸 United States

Запущен Feb 7, 2026 с Vandenberg Space Force Base

Loading…

Ближайшие Пролёты (ближайшие 24 часа)

TLE

СвежийSource: CelesTrak SupGP

Эпоха: Sep 14, 2026, 20:33 UTC

1 67704C 26025M   26257.85673611 -.00010336  00000+0 -32077-3 0  2571
2 67704  97.2858   7.7811 0000936 105.2673  25.8705 15.33453695    13

Отслеживайте STARLINK-36338 в реальном времени с AllMySat

Download on the App Store